Antonio Macea, Cuba

9:33 PM CDT on August 19, 2018 (GMT -0400)
Guantanamo Bay Naval Air Station | | Change Station

Elev 56 ft 19.91 °N, 75.21 °W | Updated 37 minutes ago

Clear
Clear
86 °F
Feels Like 98 °F
N
7
Wind Variable Wind from East

Today
High -- | Low -- °F
--% Chance of Precip.
Yesterday
High -- | Low -- °F
Precip. -- in
Pressure 30.01 in
Visibility 6.2 miles
Clouds Few 3000 ft
Mostly Cloudy 28000 ft
Heat Index 98 °F
Dew Point 78 °F
Humidity 77%
Rainfall 0.00 in
Snow Depth Not available.
6:44 AM 7:29 PM
Waxing Gibbous, 67% visible
METAR MUGM 200056Z 08006KT 9999 FEW030 BKN280 30/26 A3000 RMK SLP160 T03000256
Pressure 30.01 in
Visibility 6.2 miles
Clouds Few 3000 ft
Mostly Cloudy 28000 ft
Heat Index 98 °F
Dew Point 78 °F
Humidity 77%
Rainfall 0.00 in
Snow Depth Not available.
6:44 AM 7:29 PM
Waxing Gibbous, 67% visible
METAR MUGM 200056Z 08006KT 9999 FEW030 BKN280 30/26 A3000 RMK SLP160 T03000256

Get Severe Weather Alerts

Thanks for signing up!

Be on the lookout for a verification email in your inbox.

You'll start receiving the daily forecast at 6 AM.

×

10-Day Weather Forecast

No radar image for this location.
×

Almanac

Astronomy

Aug. 19, 2018 Rise Set
Actual Time
Civil Twilight
Nautical Twilight
Astronomical Twilight
Moon
Length of Visible Light
Length of Day
Tomorrow will be .
, % of the Moon is Illuminated

Today's Extremes

Country Highs Country Lows

Community

WunderPhotos

Category 6

Welcome to Category 6. This is the collective home for Weather Underground's featured writeups by Dr. Jeff Masters (right), Bob Henson (left), Chris Burt, and other regular contributors.

Nearby

Air Quality

  Air Quality AQ Index Pollutant
Not available.

Snow Depth

Station Depth Elevation

Earthquake Activity

City Distance Mag. Time & Date
Minimum magnitude displayed is 2.5.

Coastal Water Temperatures

Place Temperature

Stations

Nearby Weather Stations

Station Location Temp. Windchill Dew Point Humidity Wind Precip. Elev Updated Type